sat.trackr.live / text

‹ back to catalog

STARLINK-32341

NORAD 61639 · 2024-191U

PAYLOAD ACTIVE UNKNOWN

§ Identity

Operator
Country
US
Launch date
2024-10-23
Launch site
AFETR
Launch vehicle
Mass (kg)
RCS (m²)

Purposes: comms

External: N2YO · Heavens-Above · Gunter

§ Orbital elements

Epoch: 2026-05-25T04:16:55.487136Z

Period
94.27 min
Inclination
43.0011°
Eccentricity
0.0000698
Mean motion
15.27590868 rev/d
Perigee alt
482.5 km
Apogee alt
483.5 km
Semi-major
6,861.2 km
B*
-3.6599e-5
RAAN
82.5949°
Arg perigee
248.0053°
Mean anomaly
112.0725°
Rev number
8,923

§ Raw data

STARLINK-323411 61639U 24191U   26145.17841999 -.00001269  00000+0 -36599-4 0  99932 61639  43.0011  82.5949 0000698 248.0053 112.0725 15.27590868 89239

JSON: /api/v1/satellites/61639 · /tle

For live sub-satellite position, see the globe view (requires WebGL).

§ Visibility from observer

Set your observer location to see the next 7 days of passes ≥ 10°. The values pass through the URL so the page stays shareable.

No JS? Fill the form by hand. The geolocation button needs JavaScript.